Printer-friendly version
Follow the MPC on Twitter Follow the MPC on Facebook The MPC blog
Minor Planet Center

MPEC 2000-R27 : 2000 LM

The following Minor Planet Electronic Circular may be linked-to from your own Web pages, but must not otherwise be redistributed electronically.

A form allowing access to any MPEC is at the bottom of this page.


Read MPEC 2000-R26 Read MPEC 2000-R28


M.P.E.C. 2000-R27                                Issued 2000 Sept. 6, 18:28 UT

     The Minor Planet Electronic Circulars contain information on unusual
         minor planets and routine data on comets.  They are published
   on behalf of Commission 20 of the International Astronomical Union by the
          Minor Planet Center, Smithsonian Astrophysical Observatory,
                          Cambridge, MA 02138, U.S.A.

             Prepared using the Tamkin Foundation Computer Network

             BMARSDEN@CFA.HARVARD.EDU or GWILLIAMS@CFA.HARVARD.EDU
          URL http://cfa-www.harvard.edu/iau/mpc.html  ISSN 1523-6714

                                    2000 LM

                           Revision to MPEC 2000-L16

Observations:
     K00L00M 1 1989 10 28.34028 04 25 50.66 +30 06 09.8                      261
     K00L00M 1 1989 10 28.38542 04 25 47.24 +30 05 19.7                      261

Observer details:
261 Palomar Mountain-DSS.  Trails located and measured by DANEOPS
    (R. Stoss, A. Gnadig).  1.2-m Schmidt.

First and last observations above in comparison with prediction:
Residuals in seconds of arc (or two decimals in degrees), reference and Delta-T
891028 261 0.20+ 0.06-    891028 261 0.20+ 0.06-    MPO  2792   -0.26 day

Orbital elements:
2000 LM
Epoch 2000 Sep. 13.0 TT = JDT 2451800.5                 Gnadig
M  20.93771              (2000.0)            P               Q
n   0.44048105     Peri.   66.87440     +0.57035818     +0.77069288
a   1.7107422      Node   241.00340     -0.82083809     +0.52203969
e   0.2619700      Incl.   18.95581     -0.03027187     +0.36538617
P   2.24           H   16.4           G   0.15           U   1
Residuals in seconds of arc
891028 261  0.3-  0.4+    000615 413  0.0   0.3-    000706 046  0.1-  0.3+
891028 261  0.6+  0.5+    000615 413  0.0   0.3-    000706 046  0.1-  0.1+
000601 704  0.0   0.2+    000617 046  0.4-  0.2-    000706 118  0.3+  0.1+
000601 704  0.0   0.3-    000617 046  0.5-  0.1+    000706 118  0.0   0.1+
000601 704  0.3-  0.1-    000617 046  0.5-  0.1-    000706 118  0.1-  0.2+
000601 704  0.0   0.2+    000617 046  0.1-  0.1+    000708 900  1.7-  0.5+
000601 704  0.4-  0.2+    000619 610  1.0+  0.1+    000708 900 (1.7-  2.3+)
000601 557  0.4-  0.1+    000619 610  1.2+  0.3+    000708 360  0.4-  0.2-
000601 557  0.3-  0.0     000619 610  1.6+  0.6+    000708 360  0.3-  0.2-
000601 046  0.2-  0.8+    000620 587  0.2-  0.2+    000708 360  0.6-  0.0
000601 557  0.1-  0.3+    000620 587  0.2+  0.7+    000710 118  0.7+  0.3+
000601 046  0.5-  0.2+    000621 118  0.0   0.2-    000710 118  0.8+  0.0
000601 557  0.1-  0.1+    000621 118  0.5+  0.0     000713 739  1.3+  0.7-
000601 046  0.0   0.6+    000621 118  0.3-  0.8-    000713 739  0.7+  0.6+
000601 046  0.3-  0.2+    000622 610  0.1+  0.2+    000713 739  0.9+  0.1+
000601 557  0.2-  0.2+    000622 610  0.1+  0.1+    000719 402  0.5-  0.3-
000601 046  0.0   0.3+    000622 610  0.0   0.1-    000719 402  0.5-  0.0
000602 610  0.6+  0.2+    000622 118  0.8+  0.2-    000719 402  0.3-  0.4-
000602 610  0.5+  0.3+    000622 118  0.1+  0.3+    000721 118  0.2-  0.4-
000602 610  0.2+  0.4+    000622 118  0.1-  0.2-    000721 118  0.1-  0.1+
000602 587  0.7+  0.6+    000624 704  0.3-  0.3-    000721 846  0.2-  0.2-
000602 587  0.1+  0.8+    000624 704  0.4-  0.1+    000721 846  0.5+  1.2+
000602 163  0.1+  1.0-    000624 704  0.4+  0.3+    000721 846  1.0+  0.3+
000602 163  0.3-  0.7-    000624 704  0.1-  0.1-    000721 360  0.0   0.1-
000602 163  0.3+  0.2-    000624 704  0.2-  0.3-    000721 360  0.2-  0.0
000602 163  0.5-  0.1-    000625 860  0.9+  0.1-    000721 360  0.1-  0.1-
000602 163  0.2-  0.4-    000625 860  0.6+  1.3+    000722 739 (1.0+  3.4-)
000602 163  0.3-  0.9-    000625 860  1.4-  0.3-    000722 739  0.2+  0.4-
000603 108  0.0   0.5-    000626 071  0.5+  1.9+    000722 846  0.0   0.5+
000603 611  0.4+  0.0     000626 071 (0.5+  2.3+)   000722 739  0.0   0.6-
000603 611  0.1+  0.6+    000626 071  0.7+  1.9+    000722 846  0.7-  0.8+
000603 108 (2.4+  1.9-)   000626 610  0.8+  0.2-    000722 413  0.2-  0.0
000603 611  0.1-  0.5+    000626 610  0.6+  0.2-    000722 413  0.3-  0.0
000603 118  0.7-  0.6-    000626 610  0.2+  0.2-    000722 413  0.4-  0.0
000603 118  0.5+  0.7-    000626 610  0.0   0.2-    000722 413  0.4-  0.1+
000603 118  0.6+  0.0     000627 118  0.1+  0.0     000723 739  1.1+  0.9-
000604 670  0.3-  0.3-    000627 118  0.6+  0.6+    000723 739  0.5+  1.5+
000604 670  0.4-  0.1+    000627 118  0.6+  0.1-    000723 739  0.2-  0.4+
000604 402  0.1-  0.2-    000627 046  0.2-  0.1-    000723 739  0.1-  0.7-
000604 402  0.1-  0.5-    000627 046  0.1+  0.2-    000725 670  0.2+  0.1-
000604 402  0.5-  0.1+    000627 046  0.0   0.1-    000725 670  0.3-  0.2+
000608 557  0.1+  0.0     000627 046  0.2+  0.0     000725 670  0.1-  0.2+
000608 557  0.1-  0.1+    000628 071  0.1-  1.0+    000726 118  0.1-  0.4+
000608 610  1.0+  0.5+    000628 071  0.4+  0.8+    000726 118  0.2-  0.3+
000608 610  0.5+  0.3+    000628 071  1.1+  0.5-    000726 071 (0.6-  2.1-)
000608 610  0.1+  0.2+    000628 151  0.3-  0.5-    000726 071  0.1-  0.9-
000609 611  0.8-  0.3+    000628 151  0.1+  0.1-    000730 587  0.2+  0.3+
000609 611  0.3-  0.1+    000628 151 (1.4+  2.0-)   000730 587  0.1+  0.3+
000609 540  0.3+  1.1-    000628 151  0.0   1.1-    000801 739  0.0   1.3-
000609 540  0.2-  0.0     000628 151  0.9-  1.0+    000801 739  0.7-  1.4-
000609 540  0.3+  0.3+    000629 610  0.5-  0.2-    000801 739  1.2-  1.7-
000609 540  0.2-  0.1+    000629 610  0.5-  0.2-    000804 846  0.2+  0.2+
000609 151  1.2-  1.9-    000629 610  0.4-  0.2-    000804 846  0.5+  0.8-
000609 151 (3.3+  4.5+)   000629 610  0.5-  0.3-    000804 846  0.4+  1.1-
000609 151  0.9-  1.7+    000629 610  0.5-  0.3-    000805 145  0.1+  0.5+
000609 046  0.1+  0.0     000630 118  0.0   0.3-    000805 145  0.3+  0.0
000609 151 (4.5-  1.2+)   000630 118  0.1-  0.0     000805 145  0.3+  0.8+
000609 046  0.1-  0.1-    000701 642  0.7+  1.4-    000810 846  0.6-  0.6+
000609 046  0.1-  0.1-    000701 642 (2.8+  4.3+)   000810 846  0.8+  1.5+
000609 046  0.3-  0.0     000701 610  0.2+  0.3-    000810 846  0.0   0.4+
000609 046  0.1-  0.3-    000701 610  0.1+  0.3-    000813 846  0.1-  1.2-
000609 151  0.5-  1.1+    000701 610  0.0   0.3-    000813 846  0.6-  0.2-
000610 118  0.3+  0.4-    000701 610  0.0   0.3-    000813 846  0.2-  0.3-
000610 118  0.0   0.5-    000701 610  0.1-  0.3-    000820 118  0.3+  0.3+
000610 118  0.2+  0.3-    000701 610  0.1+  0.2-    000820 118  0.5+  0.2-
000611 704  1.8-  0.1+    000701 610  0.1+  0.2-    000823 360  0.3-  0.6+
000611 704  0.1-  0.1+    000701 610  0.0   0.1-    000823 360  0.2-  0.5+
000611 704  0.3-  0.3+    000702 071  0.0   1.5+    000823 360  0.4-  0.4+
000611 704  0.2-  0.1-    000702 071 (0.4+  3.3+)   000823 118  0.3-  0.8+
000611 704  0.5-  0.4-    000703 670  0.4+  0.4-    000823 118  0.2-  1.1+
000612 704  0.0   0.1-    000703 670  0.0   0.0     000824 587  0.0   0.5+
000612 704  0.2+  0.1-    000703 670  0.3-  0.2-    000825 846  1.0-  0.7-
000612 704  0.3+  0.1-    000703 402  0.7+  0.3-    000825 846  0.1-  0.6-
000612 704  0.5-  0.4-    000703 402  0.4+  0.3+    000825 846  0.1-  0.3+
000612 413  0.1+  0.3+    000703 402  0.2+  0.3-    000826 118  0.4+  0.9-
000612 413  0.0   0.3-    000706 046  0.0   0.0     000826 118  0.3+  0.9-
000612 413  0.0   0.0     000706 046  0.1-  0.3+

Ephemeris:
2000 LM                  a,e,i = 1.71, 0.26, 19                  q = 1.2626
Date    TT    R. A. (2000) Decl.     Delta      r     Elong.  Phase     V
2000 09 03    20 00.89   +42 57.2    0.478    1.296   116.7    44.1    17.1
2000 09 13    20 14.88   +39 51.4    0.494    1.315   118.4    42.3    17.1
2000 09 23    20 33.09   +35 59.5    0.516    1.338   120.0    40.5    17.2
2000 10 03    20 54.63   +31 37.6    0.544    1.364   121.1    38.9    17.3
2000 10 13    21 18.48   +27 07.2    0.583    1.392   121.2    37.8    17.5
2000 10 23    21 43.62   +22 48.7    0.634    1.423   120.2    37.2    17.7
2000 11 02    22 09.30   +18 59.1    0.698    1.456   117.9    37.1    17.9
2000 11 12    22 34.97   +15 49.6    0.775    1.489   114.6    37.2    18.2
2000 11 22    23 00.21   +13 23.6    0.865    1.524   110.5    37.4    18.5
2000 12 02    23 24.90   +11 39.3    0.967    1.560   106.0    37.4    18.8
2000 12 12    23 48.96   +10 32.4    1.078    1.595   101.2    37.2    19.1
2000 12 22    00 12.39   +09 56.5    1.197    1.631    96.3    36.8    19.3
2001 01 01    00 35.29   +09 45.7    1.323    1.666    91.3    36.2    19.6
2001 01 11    00 57.73   +09 54.2    1.453    1.701    86.3    35.2    19.8
2001 01 21    01 19.78   +10 17.0    1.587    1.736    81.3    34.1    20.0
2001 01 31    01 41.55   +10 49.7    1.721    1.769    76.3    32.8    20.2
2001 02 10    02 03.12   +11 28.8    1.856    1.802    71.3    31.3    20.4
2001 02 20    02 24.53   +12 11.1    1.989    1.833    66.4    29.6    20.5

Timothy B. Spahr             (C) Copyright 2000 MPC           M.P.E.C. 2000-R27

Read MPEC 2000-R26 Read MPEC 2000-R28


MPEC number:

Enter an MPEC number in one of the following forms:

  • 1997-B01 (the full form)
  • J97B01 (the packed version of the full form)
  • B01 (the abbreviated form)

Valid HTML 4.01!